Regional Weather Roundup
Issued by NWS

Home | Current Version | Previous Version | Graphics & Text | Print | Product List | Glossary On
Versions: 1 2 3 4 5 6 7 8 9 10 11 12 13 14 15 16 17 18 19 20 21 22 23 24 25 26 27 28 29 30 31 32 33 34 35 36 37 38 39 40 41 42 43 44 45 46 47 48 49 50
206
ASUS45 KCYS 221210
RWRWY

WYOMING REGIONAL WEATHER ROUNDUP
NATIONAL WEATHER SERVICE CHEYENNE WY
500 AM MST WED NOV 22 2017

NOTE:  "FAIR" INDICATES FEW OR NO CLOUDS BELOW 12,000 FEET
WITH NO SIGNIFICANT WEATHER AND/OR OBSTRUCTIONS TO VISIBILITY.

WYZ001-221300-
YELLOWSTONE NATIONAL PARK

CITY           SKY/WX    TMP DP  RH WIND       PRES   REMARKS
LK YELLOWSTONE   N/A     37  36  96 VRB7G16   30.37R WCI  32
6HR MIN TEMP:  34; 6HR MAX TEMP:  37;

W YELLOWSTONE  NOT AVBL

$$
WYZ002>013-054>058-071-098>099-221300-
NORTHERN WYOMING

CITY           SKY/WX    TMP DP  RH WIND       PRES   REMARKS
JACKSON        CLOUDY    43  39  86 E6        30.35S
CODY           FAIR      57  37  47 W16G37    30.14R
GREYBULL       FAIR      32  29  88 CALM      30.16S
6HR MIN TEMP:  29; 6HR MAX TEMP:  36;

WORLAND        FAIR      29  28  96 SW6       30.17R WCI  23
6HR MIN TEMP:  25; 6HR MAX TEMP:  33;

SHERIDAN       FAIR      32  28  85 CALM      30.02F
6HR MIN TEMP:  28; 6HR MAX TEMP:  34;

BUFFALO        FAIR      43  27  53 SW9       30.07R
6HR MIN TEMP:  39; 6HR MAX TEMP:  50;

GILLETTE       FAIR      47  30  51 SW17      30.05R
6HR MIN TEMP:  44; 6HR MAX TEMP:  48;

HULETT         PTSUNNY   43  28  56 SW8       30.07R
NEWCASTLE      FAIR      30  25  80 CALM      30.12R

$$
WYZ014>020-022>026-101>103-221300-
CENTRAL WYOMING

CITY           SKY/WX    TMP DP  RH WIND       PRES   REMARKS
BIG PINEY      CLOUDY    34  34 100 E7        30.40S WCI  28
6HR MIN TEMP:  34; 6HR MAX TEMP:  35; 6HR PCP:  0.01;

PINEDALE       CLOUDY    34  34 100 CALM      30.42R
DUBOIS         PTSUNNY   41  34  75 NW14G21   30.28S
LANDER         FAIR      43  30  60 W7        30.19F
6HR MIN TEMP:  36; 6HR MAX TEMP:  44;

RIVERTON       FAIR      42  29  59 W9        30.21R
6HR MIN TEMP:  39; 6HR MAX TEMP:  50;

CASPER         FAIR      46  35  65 SW21      30.19R
6HR MIN TEMP:  43; 6HR MAX TEMP:  47;

DOUGLAS        FAIR      33  30  88 N5        30.15R WCI  29
6HR MIN TEMP:  27; 6HR MAX TEMP:  35;


$$
WYZ021-027>030-104>119-221300-
SOUTHERN WYOMING

CITY           SKY/WX    TMP DP  RH WIND       PRES   REMARKS
EVANSTON       CLOUDY    41  36  82 SW12      30.46R
6HR MIN TEMP:  39; 6HR MAX TEMP:  42;

KEMMERER       CLOUDY    39  36  87 SW7       30.44S WCI  34
FORT BRIDGER   PTSUNNY   44  37  77 SW8       30.46F
ROCK SPRINGS   FAIR      42  34  73 W23       30.39S
6HR MIN TEMP:  40; 6HR MAX TEMP:  45;

DIXON          CLOUDY    37  34  89 CALM      30.45R
RAWLINS        LGT RAIN  42  35  76 W22G33    30.33F
6HR MIN TEMP:  41; 6HR MAX TEMP:  43; 6HR PCP: TRACE;

SARATOGA       CLOUDY    41  34  75 SW6       30.38S
LARAMIE        FAIR      40  33  76 SW18      30.29R WCI  31
6HR MIN TEMP:  38; 6HR MAX TEMP:  42;

CHEYENNE       FAIR      48  35  60 NW13G21   30.21F
6HR MIN TEMP:  32; 6HR MAX TEMP:  49;

TORRINGTON     FAIR      28  27  96 CALM      30.14F
6HR MIN TEMP:  28; 6HR MAX TEMP:  33;

PINE BLUFFS    FAIR      32  32 100 MISG      30.21R

$$




USA.gov is the U.S. government's official web portal to all federal, state and local government web resources and services.